STARLINK-38130, 100187

Orbit data source: Space-Track

STARLINK-38130, 100187 is a payload satellite owned by SpaceX/Seattle (US) in SSO that was launched on Sat, 01 Aug 2026 UTC launched from the Air Force Western Test Range (AFWTR). Payload-class satellites include a variety of spacecraft equipped with specific instruments for various scientific and technological missions. These include communications satellites like Starlink; space stations such as the ISS; scientific satellites like the Hubble; Earth observation satellites from companies like Planet Labs, Umbra, and HawkEye 360; GPS; miniature CubeSats for education and research; and military/defense satellites.

Loading next visibility...
Identifier
100187, 2026-175J
Orbit
SSO
Country
Flag of USUS
Related business
Manufacturer
SpaceX/Seattle
Mission
Operational spacecraft
Bus & Motor
STARLINK V2MO, Unknown motor
Mass
575 kg wet, ~530 kg dry
Launch date (UTC)
2026-08-01 (1 month ago)
Launch vehicle
Unknown
Launch site
Air Force Western Test Range (AFWTR)
Object type
Payload
Rocket body
Debris
Shape & HBR
BOX + PAN, 17.7 m
Radar Cross Section
RCS unknown

Expand to show TLE details & history
Last TLE update: 8 hours ago

TLE from 8 hours ago
0 STARLINK-38130
1 A0187U 26175J   26249.53065884  .00173975  00000-0  11430-2 0  9992
2 A0187  97.2812  91.2206 0001093  75.5495 284.5892 15.75204051  6975
Epoch: 2026-09-06T12:44Z
TLE epoch observation values (Epoch: 2026-09-06T12:44:08.923Z)
Latitude
0.00001°
Longitude
-85.44103°
Altitude
347.034 km
Speed
7.701 km/s
True Right ascension
06h 04m 52s
True Declination
0° 00' 00"
Sunlit
Object was in daylight at epoch
Visualization orbit readout
Latitude
Unknown
Longitude
Unknown
Altitude
Unknown
Speed
Unknown
Apparent Right ascension
Unknown
Apparent Declination
Unknown
Sunlit
N/A
Visualization observer readout
Local Sidereal Time
12:37:57
Azimuth
Unknown
Elevation
Unknown
Doppler factor
Unknown
Orbital elements
Apogee altitude
341.672 km
Perigee altitude
340.203 km
Semi-major axis
6,719.075 km
Eccentricity
0.00011
Inclination
97.2812°
RAAN
91.2206°
Arg. of periapsis
75.5495°
True anomaly
284.57708°
Mean anomaly
284.5892°
Eccentric anomaly
284.58314°
Mean motion
3.94075 °/min
Orbital period
91.35 mins
BSTAR
0.001143
Loading maneuver chart data...
Computing Atmospheric mass density...
Loading historical data...
Loading historical data...
Loading historical data...
Loading historical data...
Loading historical data...
Loading historical data...
Loading historical data...

Documentation

Showing up to 5 results
|